Regional Weather Roundup
Issued by NWS

Home | Current Version | Previous Version | Text Only | Print | Product List | Glossary On
Versions: 1 2 3 4 5 6 7 8 9 10 11 12 13 14 15 16 17 18 19 20 21 22 23 24 25 26 27 28 29 30 31 32 33 34 35 36 37 38 39 40 41 42 43 44 45 46 47 48 49
000
ASPQ40 PGUM 210612
RWRPQ
WEATHER ROUNDUP FOR THE MARIANAS AND MICRONESIA
NATIONAL WEATHER SERVICE TIYAN GU
400 PM CHST THU AUG 21 2014

GUZ001>004-210700-
MARIANA ISLANDS-

CITY           SKY/WX    TMP DP  RH WIND       PRES   REMARKS
GUAM AIRPORT   SUNNY     84  73  70 N6        29.79F HX  91
ANDERSEN AFB   PTSUNNY   86  75  70 N8        29.79F HX  95
ROTA AIRPORT   PTSUNNY   82  75  78 NW8       29.79F
TINIAN AP      LGT RAIN  81  79  94 SE5       29.76F
SAIPAN AP      MOSUNNY   86  75  70 W6        29.78F HX  95

$$

PMZ161-210700-
REPUBLIC OF PALAU-

CITY           SKY/WX    TMP DP  RH WIND       PRES   REMARKS
KOROR AP       LGT RAIN  88  81  79 W13       29.79F HX 105
KOROR WSO      PTSUNNY   90  77  66 W8        29.79S HX 102

$$

PMZ171>174-210700-
FEDERATED STATES OF MICRONESIA-

CITY           SKY/WX    TMP DP  RH WIND       PRES   REMARKS
YAP AIRPORT    PTSUNNY   81  77  89 VRB3      29.79S
CHUUK AP       CLOUDY    82  79  89 CALM      29.78R HX  93
POHNPEI AP     NOT AVBL
POHNPEI WSO    CLOUDY    84  77  79 S3        29.83R HX  94
KOSRAE AP      NOT AVBL

$$

PMZ181-210700-
REPUBLIC OF THE MARSHALL ISLANDS-

CITY           SKY/WX    TMP DP  RH WIND       PRES   REMARKS
KWAJALEIN AP   SUNNY     86  72  62 S3        29.82R HX  92
MAJURO AP      NOT AVBL
MAJURO WSO     PTSUNNY   84  77  79 CALM      29.80R HX  94

$$



USA.gov is the U.S. government's official web portal to all federal, state and local government web resources and services.